When you browse on this site, cookies collect data to enhance your experience and personalize the content and advertising you see.
Visit our Privacy Policy to learn more. By continuing to use the site, you agree to this use of cookies and data.
  • In Hungary
  • List of Countries
  • For 7 days
  • Water Temperature
  • Satellite Maps
  • Weather Map
  • News
  • Weather Widgets
  • user-avatar
    Login

    Hourly Weather Canberra

    Today, 10 December, Monday

    Time Temperature Precipitation Wind Pressure Humidity
    00:00 +20°C° 0.7 mm 1 mps 710 mmHg 93%
    01:00 +20°C° 0.7 mm 1 mps 710 mmHg 93%
    02:00 +19°C° 1.3 mm 1 mps 709 mmHg 93%
    03:00 +19°C° 1.3 mm 1 mps 709 mmHg 92%
    04:00 +19°C° 1.3 mm 1 mps 709 mmHg 92%
    05:00 +18°C° 0.9 mm 2 mps 709 mmHg 90%
    06:00 +18°C° 0.9 mm 2 mps 709 mmHg 88%
    07:00 +19°C° 0.9 mm 2 mps 710 mmHg 86%
    08:00 +21°C° 0 mm 2 mps 710 mmHg 76%
    09:00 +22°C° 0 mm 3 mps 710 mmHg 66%
    10:00 +25°C° 0 mm 3 mps 710 mmHg 56%
    11:00 +26°C° 0.1 mm 3 mps 710 mmHg 52%
    12:00 +28°C° 0.1 mm 3 mps 710 mmHg 48%
    13:00 +29°C° 0.1 mm 3 mps 710 mmHg 45%
    14:00 +28°C° 0.4 mm 3 mps 709 mmHg 49%
    15:00 +27°C° 0.4 mm 3 mps 709 mmHg 53%
    16:00 +26°C° 0.4 mm 3 mps 709 mmHg 57%
    17:00 +24°C° 0.9 mm 3 mps 709 mmHg 68%
    18:00 +21°C° 0.9 mm 3 mps 709 mmHg 80%
    19:00 +18°C° 0.9 mm 3 mps 709 mmHg 91%
    20:00 +17°C° 0.1 mm 3 mps 710 mmHg 92%
    21:00 +17°C° 0.1 mm 3 mps 710 mmHg 92%
    22:00 +16°C° 0.1 mm 3 mps 711 mmHg 92%
    23:00 +16°C° 0 mm 3 mps 710 mmHg 93%

    Tomorrow, 11 December, Tuesday

    Time Temperature Precipitation Wind Pressure Humidity
    00:00 +14°C° 0 mm 3 mps 710 mmHg 93%
    01:00 +15°C° 0 mm 2 mps 710 mmHg 93%
    02:00 +14°C° 0 mm 2 mps 710 mmHg 94%
    03:00 +14°C° 0 mm 2 mps 710 mmHg 94%
    04:00 +14°C° 0 mm 2 mps 710 mmHg 95%
    05:00 +15°C° 0 mm 2 mps 710 mmHg 89%
    06:00 +16°C° 0 mm 2 mps 710 mmHg 84%
    07:00 +17°C° 0 mm 2 mps 711 mmHg 79%
    08:00 +19°C° 0 mm 3 mps 711 mmHg 70%
    09:00 +21°C° 0 mm 3 mps 711 mmHg 60%
    10:00 +25°C° 0 mm 3 mps 712 mmHg 51%
    11:00 +26°C° 0 mm 3 mps 711 mmHg 49%
    12:00 +27°C° 0 mm 3 mps 711 mmHg 47%
    13:00 +28°C° 0 mm 3 mps 711 mmHg 44%
    14:00 +27°C° 0.3 mm 3 mps 710 mmHg 50%
    15:00 +26°C° 0.3 mm 3 mps 709 mmHg 56%
    16:00 +25°C° 0.3 mm 3 mps 709 mmHg 62%
    17:00 +22°C° 0.2 mm 3 mps 709 mmHg 68%
    18:00 +21°C° 0.2 mm 3 mps 709 mmHg 75%
    19:00 +19°C° 0.2 mm 3 mps 709 mmHg 81%
    20:00 +18°C° 0 mm 3 mps 709 mmHg 84%
    21:00 +17°C° 0 mm 3 mps 710 mmHg 88%
    22:00 +16°C° 0 mm 2 mps 710 mmHg 91%
    23:00 +16°C° 0 mm 2 mps 709 mmHg 91%

    Day after tomorrow, 12 December, Wednesday

    Time Temperature Precipitation Wind Pressure Humidity
    00:00 +16°C° 0 mm 2 mps 709 mmHg 91%
    01:00 +16°C° 0 mm 2 mps 709 mmHg 90%
    02:00 +16°C° 0 mm 2 mps 708 mmHg 91%
    03:00 +16°C° 0 mm 2 mps 708 mmHg 91%
    04:00 +16°C° 0 mm 2 mps 708 mmHg 91%
    05:00 +16°C° 0 mm 2 mps 708 mmHg 89%
    06:00 +17°C° 0 mm 2 mps 708 mmHg 87%
    07:00 +17°C° 0 mm 2 mps 708 mmHg 85%
    08:00 +18°C° 0 mm 2 mps 708 mmHg 81%
    09:00 +19°C° 0 mm 2 mps 708 mmHg 76%
    10:00 +20°C° 0 mm 2 mps 708 mmHg 71%
    11:00 +23°C° 0.1 mm 2 mps 708 mmHg 65%
    12:00 +25°C° 0.1 mm 2 mps 707 mmHg 59%
    13:00 +27°C° 0.1 mm 2 mps 707 mmHg 53%
    14:00 +27°C° 0.4 mm 2 mps 706 mmHg 55%
    15:00 +27°C° 0.4 mm 2 mps 706 mmHg 57%
    16:00 +27°C° 0.4 mm 2 mps 705 mmHg 58%
    17:00 +25°C° 0.4 mm 2 mps 705 mmHg 65%
    18:00 +24°C° 0.4 mm 3 mps 704 mmHg 73%
    19:00 +21°C° 0.4 mm 3 mps 704 mmHg 80%
    20:00 +20°C° 0.7 mm 3 mps 704 mmHg 85%
    21:00 +19°C° 0.7 mm 2 mps 704 mmHg 90%
    22:00 +18°C° 0.7 mm 2 mps 704 mmHg 95%
    23:00 +18°C° 2.9 mm 2 mps 704 mmHg 95%

    13 December, Thursday

    Time Temperature Precipitation Wind Pressure Humidity
    00:00 +18°C° 2.9 mm 2 mps 703 mmHg 96%
    01:00 +19°C° 2.9 mm 1 mps 703 mmHg 96%
    02:00 +19°C° 0.4 mm 1 mps 702 mmHg 97%
    03:00 +19°C° 0.4 mm 1 mps 702 mmHg 97%
    04:00 +18°C° 0.4 mm 1 mps 701 mmHg 97%
    05:00 +19°C° 0.1 mm 1 mps 701 mmHg 94%
    06:00 +20°C° 0.1 mm 1 mps 701 mmHg 91%
    07:00 +21°C° 0.1 mm 1 mps 701 mmHg 88%
    08:00 +23°C° 0.1 mm 2 mps 701 mmHg 77%
    09:00 +26°C° 0.1 mm 2 mps 701 mmHg 66%
    10:00 +28°C° 0.1 mm 3 mps 701 mmHg 56%
    11:00 +28°C° 1.5 mm 3 mps 700 mmHg 60%
    12:00 +27°C° 1.5 mm 3 mps 700 mmHg 63%
    13:00 +26°C° 1.5 mm 3 mps 699 mmHg 67%
    14:00 +26°C° 2.3 mm 3 mps 698 mmHg 71%
    15:00 +25°C° 2.3 mm 3 mps 698 mmHg 75%
    16:00 +24°C° 2.3 mm 2 mps 697 mmHg 79%
    17:00 +23°C° 4.4 mm 2 mps 697 mmHg 84%
    18:00 +21°C° 4.4 mm 2 mps 696 mmHg 88%
    19:00 +20°C° 4.4 mm 2 mps 696 mmHg 92%
    20:00 +20°C° 2 mm 3 mps 696 mmHg 93%
    21:00 +19°C° 2 mm 3 mps 696 mmHg 93%
    22:00 +19°C° 2 mm 3 mps 695 mmHg 94%
    23:00 +18°C° 0.6 mm 3 mps 695 mmHg 94%

    14 December, Friday

    Time Temperature Precipitation Wind Pressure Humidity
    00:00 +18°C° 0.6 mm 3 mps 694 mmHg 94%
    01:00 +18°C° 0.6 mm 3 mps 693 mmHg 94%
    02:00 +17°C° 0.5 mm 3 mps 693 mmHg 94%
    03:00 +15°C° 0.5 mm 4 mps 693 mmHg 93%
    04:00 +13°C° 0.5 mm 5 mps 693 mmHg 92%
    05:00 +13°C° 0.1 mm 5 mps 694 mmHg 90%
    06:00 +12°C° 0.1 mm 5 mps 695 mmHg 88%
    07:00 +12°C° 0.1 mm 5 mps 695 mmHg 86%
    08:00 +12°C° 0.1 mm 5 mps 696 mmHg 79%
    09:00 +13°C° 0.1 mm 5 mps 696 mmHg 71%
    10:00 +14°C° 0.1 mm 5 mps 696 mmHg 64%
    11:00 +15°C° 0.1 mm 5 mps 697 mmHg 59%
    12:00 +17°C° 0.1 mm 4 mps 697 mmHg 53%
    13:00 +17°C° 0.1 mm 4 mps 697 mmHg 48%
    14:00 +17°C° 0.2 mm 4 mps 697 mmHg 49%
    15:00 +17°C° 0.2 mm 4 mps 697 mmHg 50%
    16:00 +17°C° 0.2 mm 4 mps 697 mmHg 51%
    17:00 +16°C° 0 mm 3 mps 698 mmHg 55%
    18:00 +14°C° 0 mm 3 mps 698 mmHg 59%
    19:00 +14°C° 0 mm 2 mps 699 mmHg 63%
    20:00 +13°C° 0 mm 2 mps 699 mmHg 62%
    21:00 +13°C° 0 mm 2 mps 699 mmHg 62%
    22:00 +12°C° 0 mm 2 mps 699 mmHg 62%
    23:00 +12°C° 0 mm 2 mps 699 mmHg 62%

    15 December, Saturday

    Time Temperature Precipitation Wind Pressure Humidity
    00:00 +12°C° 0 mm 2 mps 698 mmHg 61%
    01:00 +10°C° 0 mm 2 mps 698 mmHg 61%
    02:00 +12°C° 0.1 mm 2 mps 698 mmHg 60%
    03:00 +12°C° 0.1 mm 2 mps 698 mmHg 59%
    04:00 +11°C° 0.1 mm 3 mps 698 mmHg 57%
    05:00 +12°C° 0.6 mm 2 mps 698 mmHg 67%
    06:00 +10°C° 0.6 mm 2 mps 698 mmHg 77%
    07:00 +10°C° 0.6 mm 2 mps 698 mmHg 86%
    08:00 +10°C° 1.5 mm 2 mps 698 mmHg 87%
    09:00 +10°C° 1.5 mm 2 mps 698 mmHg 88%
    10:00 +10°C° 1.5 mm 3 mps 698 mmHg 89%
    11:00 +11°C° 1.2 mm 3 mps 698 mmHg 89%
    12:00 +11°C° 1.2 mm 4 mps 698 mmHg 89%
    13:00 +11°C° 1.2 mm 4 mps 697 mmHg 89%
    14:00 +12°C° 0.8 mm 4 mps 697 mmHg 86%
    15:00 +13°C° 0.8 mm 4 mps 697 mmHg 84%
    16:00 +14°C° 0.8 mm 4 mps 697 mmHg 81%
    17:00 +13°C° 0.9 mm 3 mps 697 mmHg 85%
    18:00 +12°C° 0.9 mm 3 mps 697 mmHg 88%
    19:00 +13°C° 0.9 mm 2 mps 698 mmHg 91%
    20:00 +12°C° 0.1 mm 2 mps 698 mmHg 92%
    21:00 +12°C° 0.1 mm 2 mps 698 mmHg 93%
    22:00 +10°C° 0.1 mm 2 mps 698 mmHg 94%
    23:00 +10°C° 0 mm 2 mps 698 mmHg 94%
    Show more